Погода в Рождественской

Россия / Ставропольский край     45°12′32″N   41°49′21″E
темп.,
°C
ветер,
м/с
пор.,
м/с
влажн.,
%
обл.,
%
осадки,
мм/ч
давл.,
гПа
погр.,
м
19 апреля, пн
пн1900:00+12св1193100 0.1 101611
03:00+12ююз1191100 0.2 101510
06:00+11юз1195100 0.3 101515
09:00+14ю2492100 2.1 1015251
12:00+15з2486100 0.3 1013401
15:00+16зсз4989100 2.1 1014721
18:00+13з1595100 0.9 1014247
21:00+12ю339597 1.1 101551
20 апреля, вт
вт2000:00+13вюв3491100 0.0 101385
03:00+13в51292100 0.1 1010378
06:00+12вюв71590100 0.0 1007483
09:00+17юв71276100 0.0 1004363
12:00+23юз1355100 0.1 1004926
15:00+19з777499 1.1 10061067
18:00+15з51086100 1.7 1009689
21:00+12зюз51476100 1.8 1012804
21 апреля, ср
ср2100:00+10з71681100 0.1 1014762
03:00+9з51289100 2.6 1016637
06:00+9юз3689100 1.4 1018356
09:00+9ююз2389100 3.3 1019240
12:00+10ююз2287100 1.6 1019379
15:00+10ю2486100 3.3 1020313
18:00+11ююз358372 0.0 1020369
21:00+8ю3388100 0.0 102240
22 апреля, чт
чт2200:00+8ююз2288100 0.0 102127
03:00+8зюз119193 0.0 102211
06:00+8юз0090100 0.0 102210
09:00+12ссв117541 0.0 1023424
12:00+12вюв447797 0.1 1023624
15:00+14вюв3371100 0.1 1022822
18:00+13вюв2478100 0.3 1022123
21:00+11юв2284100 0.3 102324
23 апреля, пт
пт2300:00+10юв3486100 0.0 102368
03:00+9ююв229217 0.3 102317
06:00+8ююз119287 0.7 102410
09:00+12з22810 2.3 1024295
12:00+16сз22626 1.6 10231162
15:00+17ссз225627 2.6 10221399
18:00+15с22680 0.1 102249
21:00+12юв22730 0.1 102211